This is the latest recevied weather packets stored in our database for station/object N5PRN. If no packets are shown the sender has not sent any weather packets the latest 10 day(s).
| Time | Temp. | Humidity | Pressure | Rain* | Wind** | Luminosity | Snow |
|---|---|---|---|---|---|---|---|
| 1777693302 | 10.56° C | 96% | 1016.4 hPa | 3.05 mm | - | 0 W/m² | - |
| 1777692999 | 10.56° C | 96% | 1016.3 hPa | 1.78 mm | - | 0 W/m² | - |
| 1777692697 | 10.56° C | 96% | 1016.6 hPa | 1.78 mm | - | 0 W/m² | - |
| 1777692393 | 10.56° C | 96% | 1016.4 hPa | 1.78 mm | - | 0 W/m² | - |
| 1777692089 | 10.56° C | 96% | 1016.7 hPa | 1.27 mm | - | 0 W/m² | - |
| 1777691787 | 10.56° C | 96% | 1017 hPa | 1.27 mm | - | 0 W/m² | - |
| 1777691485 | 10.56° C | 96% | 1016.9 hPa | 0 mm | - | 0 W/m² | - |
| 1777691184 | 10.56° C | 96% | 1016.1 hPa | 0 mm | - | 0 W/m² | - |
| 1777690882 | 10.56° C | 96% | 1015.6 hPa | 0 mm | - | 0 W/m² | - |
| 1777690578 | 10.56° C | 96% | 1015.3 hPa | 1.78 mm | - | 0 W/m² | - |
| 1777690276 | 10.56° C | 96% | 1015.2 hPa | 1.78 mm | - | 0 W/m² | - |
| 1777689974 | 10.56° C | 96% | 1015.2 hPa | 0 mm | - | 0 W/m² | - |
| 1777689672 | 10.56° C | 96% | 1015.7 hPa | 1.27 mm | - | 0 W/m² | - |
| 1777689370 | 10.56° C | 96% | 1015.6 hPa | 1.27 mm | - | 0 W/m² | - |
| 1777689066 | 10.56° C | 96% | 1016.1 hPa | 1.27 mm | - | 0 W/m² | - |
| 1777688763 | 10.56° C | 96% | 1016.1 hPa | 0 mm | - | 0 W/m² | - |
| 1777688460 | 10° C | 96% | 1015.6 hPa | 0 mm | - | 0 W/m² | - |
| 1777688157 | 10.56° C | 96% | 1015.2 hPa | 0 mm | - | 0 W/m² | - |
| 1777687854 | 10.56° C | 96% | 1014.9 hPa | 0 mm | - | 0 W/m² | - |
| 1777687552 | 10° C | 96% | 1014.7 hPa | 0 mm | - | 0 W/m² | - |
| 1777687249 | 10° C | 96% | 1014.9 hPa | 0 mm | - | 0 W/m² | - |
| 1777686947 | 10.56° C | 96% | 1014.6 hPa | 0 mm | - | 0 W/m² | - |
| 1777686643 | 10° C | 96% | 1014.4 hPa | 1.78 mm | - | 0 W/m² | - |
| 1777686340 | 10° C | 96% | 1014.3 hPa | 1.78 mm | - | 0 W/m² | - |
| 1777686037 | 10° C | 96% | 1014.2 hPa | 0 mm | - | 0 W/m² | - |
* Rain latest hour (hover to see other rain measurements)
** Current wind speed in m/s (hover to see current wind gust speed)